Bellefontaine, OH

12:51 PM EST on February 08, 2016 (GMT -0500)
Bellefontaine

Weather History for KEDJ - January, 2013

Change the Weather History Date:

Monday, January 28, 2013

  Actual Average (KDAY) Record (KDAY)
Temperature  
Mean Temperature 40 °F 28 °F  
Max Temperature 48 °F 35 °F 66 °F (1914)
Min Temperature 32 °F 20 °F -13 °F (1963)
Degree Days  
Heating Degree Days 25 37  
Month to date heating degree days 1053  
Since 1 July heating degree days 3212  
Cooling Degree Days 0 0  
Month to date cooling degree days 0  
Year to date cooling degree days 0  
Moisture  
Dew Point 41 °F    
Average Humidity 100    
Maximum Humidity 100    
Minimum Humidity 100    
Precipitation  
Precipitation 0.07 in 0.08 in 0.61 in (1916)
Month to date precipitation 2.47  
Year to date precipitation 2.47  
Snow  
Snow 0.00 in 0.20 in 3.80 in (2009)
Month to date snowfall 7.1  
Since 1 July snowfall 12.6  
Snow Depth -    
Sea Level Pressure  
Sea Level Pressure 30.00 in    
Wind  
Wind Speed 14 mph (SSW)    
Max Wind Speed 23 mph    
Max Gust Speed 33 mph    
Visibility 4 miles    
Events      
T = Trace of Precipitation, MM = Missing Value Source: NWS Daily Summary

Daily Weather History Graph

Daily Weather History Graph

Search for Another Location

Airport or City:

Trip Planner

Search our weather history database for the weather conditions in past years. The results will help you decide how hot, cold, wet, or windy it might be!

Date:

Astronomy

Jan. 28, 2013 Rise Set
Actual Time 7:47 AM EST 5:49 PM EST
Civil Twilight 7:18 AM EST 6:18 PM EST
Nautical Twilight 6:46 AM EST 6:51 PM EST
Astronomical Twilight 6:13 AM EST 7:23 PM EST
Moon 7:43 PM EST (1/28) 8:12 AM EST (1/28)
Length of Visible Light 10h 59m
Length of Day
10h 01m
Full, 98% of the Moon is Illuminated
Jan 28
Full
Feb 3
Last Quarter
Feb 10
New
Feb 17
First Quarter
Feb 25
Full

Hourly Weather History & Observations

Time (EST) Temp. Windchill Dew Point Humidity Pressure Visibility Wind Dir Wind Speed Gust Speed Precip Events Conditions
12:15 AM 32.0 °F - 32.0 °F 100% 30.10 in 4.0 mi Calm Calm - 0.00 in   Overcast
12:35 AM 32.0 °F - 32.0 °F 100% 30.09 in 5.0 mi Calm Calm - 0.01 in   Overcast
12:55 AM 33.8 °F 23.5 °F 33.8 °F 100% 30.07 in 4.0 mi SSE 16.1 mph - 0.03 in   Overcast
1:15 AM 33.8 °F 23.5 °F 33.8 °F 100% 30.07 in 5.0 mi SSE 16.1 mph - 0.01 in   Overcast
1:35 AM 33.8 °F 23.5 °F 33.8 °F 100% 30.07 in 5.0 mi South 16.1 mph - 0.02 in   Overcast
1:55 AM 33.8 °F 23.9 °F 33.8 °F 100% 30.08 in 5.0 mi SSE 15.0 mph 19.6 mph 0.02 in   Overcast
2:15 AM 33.8 °F 24.3 °F 33.8 °F 100% 30.08 in 5.0 mi SSE 13.8 mph 21.9 mph 0.00 in   Overcast
2:35 AM 33.8 °F 23.5 °F 33.8 °F 100% 30.08 in 6.0 mi South 16.1 mph 21.9 mph 0.00 in   Overcast
2:55 AM 33.8 °F 23.2 °F 33.8 °F 100% 30.07 in 5.0 mi SSE 17.3 mph 21.9 mph 0.00 in   Overcast
3:15 AM 33.8 °F 23.5 °F 33.8 °F 100% 30.06 in 3.0 mi SSE 16.1 mph - 0.00 in   Overcast
3:35 AM 33.8 °F 23.2 °F 33.8 °F 100% 30.04 in 3.0 mi SSE 17.3 mph - 0.00 in   Overcast
3:55 AM 33.8 °F 22.8 °F 33.8 °F 100% 30.02 in 2.5 mi SSE 18.4 mph - 0.00 in   Overcast
4:15 AM 33.8 °F 23.9 °F 33.8 °F 100% 30.02 in 2.0 mi South 15.0 mph 21.9 mph 0.00 in   Overcast
4:35 AM 35.6 °F 25.5 °F 35.6 °F 100% 30.02 in 2.0 mi South 17.3 mph - 0.00 in   Overcast
4:55 AM 35.6 °F 25.5 °F 35.6 °F 100% 30.02 in 3.0 mi South 17.3 mph 26.5 mph 0.00 in   Mostly Cloudy
5:15 AM 37.4 °F 27.5 °F 37.4 °F 100% 30.01 in 5.0 mi South 18.4 mph 26.5 mph 0.00 in   Overcast
5:35 AM 37.4 °F 28.2 °F 37.4 °F 100% 30.01 in 5.0 mi South 16.1 mph 23.0 mph 0.00 in   Overcast
5:55 AM 39.2 °F 29.8 °F 39.2 °F 100% 30.00 in 7.0 mi South 18.4 mph 24.2 mph 0.00 in   Overcast
6:15 AM 39.2 °F 29.8 °F 39.2 °F 100% 29.99 in 9.0 mi South 18.4 mph 23.0 mph 0.00 in   Overcast
6:35 AM 39.2 °F 29.3 °F 39.2 °F 100% 29.99 in 10.0 mi South 20.7 mph - 0.00 in   Mostly Cloudy
6:55 AM 41.0 °F 32.5 °F 41.0 °F 100% 29.99 in 5.0 mi South 17.3 mph 25.3 mph 0.00 in   Mostly Cloudy
7:15 AM 41.0 °F 32.5 °F 41.0 °F 100% 29.99 in 10.0 mi South 17.3 mph - 0.00 in   Mostly Cloudy
7:35 AM 41.0 °F 32.5 °F 41.0 °F 100% 29.99 in 10.0 mi South 17.3 mph 24.2 mph 0.00 in   Mostly Cloudy
7:55 AM 42.8 °F 34.8 °F 42.8 °F 100% 30.00 in 7.0 mi South 17.3 mph - 0.00 in   Overcast
8:15 AM 42.8 °F 34.5 °F 42.8 °F 100% 30.00 in 5.0 mi SSW 18.4 mph 25.3 mph 0.00 in   Overcast
8:35 AM 42.8 °F 34.5 °F 42.8 °F 100% 30.00 in 3.0 mi South 18.4 mph - 0.01 in   Overcast
8:55 AM 42.8 °F 34.3 °F 42.8 °F 100% 30.00 in 4.0 mi South 19.6 mph 25.3 mph 0.01 in   Overcast
9:15 AM 42.8 °F 34.3 °F 42.8 °F 100% 30.00 in 7.0 mi South 19.6 mph 25.3 mph 0.00 in   Overcast
9:35 AM 42.8 °F 34.5 °F 42.8 °F 100% 29.99 in 8.0 mi South 18.4 mph 27.6 mph 0.00 in   Overcast
9:55 AM 42.8 °F 34.5 °F 42.8 °F 100% 29.99 in 5.0 mi South 18.4 mph 29.9 mph 0.00 in   Overcast
10:15 AM 42.8 °F 34.3 °F 42.8 °F 100% 29.99 in 8.0 mi SSW 19.6 mph 26.5 mph 0.00 in   Overcast
10:35 AM 42.8 °F 34.5 °F 42.8 °F 100% 29.99 in 8.0 mi SSW 18.4 mph 24.2 mph 0.00 in   Mostly Cloudy
10:55 AM 44.6 °F 36.6 °F 44.6 °F 100% 29.99 in 9.0 mi SSW 19.6 mph 27.6 mph 0.00 in   Mostly Cloudy
11:15 AM 44.6 °F 36.9 °F 44.6 °F 100% 29.99 in 9.0 mi SSW 18.4 mph 26.5 mph 0.00 in   Overcast
11:35 AM 44.6 °F 37.2 °F 44.6 °F 100% 29.99 in 9.0 mi SSW 17.3 mph - 0.00 in   Overcast
12:15 PM 46.4 °F 38.7 °F 46.4 °F 100% 29.98 in 9.0 mi SSW 20.7 mph 33.4 mph 0.00 in   Overcast
12:35 PM 46.4 °F 39.0 °F 46.4 °F 100% 29.98 in 7.0 mi SSW 19.6 mph 25.3 mph 0.00 in   Overcast
12:55 PM 46.4 °F 38.3 °F 46.4 °F 100% 29.97 in 3.0 mi SSW 23.0 mph 27.6 mph 0.01 in   Overcast
1:35 PM 46.4 °F 38.3 °F 46.4 °F 100% 29.96 in 6.0 mi SSW 23.0 mph 29.9 mph 0.00 in   Mostly Cloudy
1:55 PM 46.4 °F 39.2 °F 46.4 °F 100% 29.95 in 5.0 mi SSW 18.4 mph 28.8 mph 0.00 in   Overcast
2:15 PM 46.4 °F 39.5 °F 46.4 °F 100% 29.94 in 2.5 mi SSW 17.3 mph 23.0 mph 0.00 in   Overcast
2:35 PM 46.4 °F 39.2 °F 46.4 °F 100% 29.94 in 4.0 mi SSW 18.4 mph 24.2 mph 0.00 in   Overcast
2:55 PM 46.4 °F 39.5 °F 46.4 °F 100% 29.95 in 5.0 mi SSW 17.3 mph - 0.00 in   Overcast
3:15 PM 48.2 °F - 48.2 °F 100% 29.94 in 5.0 mi SSW 17.3 mph 25.3 mph 0.00 in   Overcast
3:35 PM 46.4 °F 40.4 °F 46.4 °F 100% 29.95 in 5.0 mi SSW 13.8 mph - 0.00 in   Overcast
3:55 PM 48.2 °F - 48.2 °F 100% 29.96 in 5.0 mi SSW 12.7 mph 19.6 mph 0.00 in   Overcast
4:15 PM 46.4 °F 40.1 °F 46.4 °F 100% 29.96 in 5.0 mi SSW 15.0 mph 21.9 mph 0.00 in   Overcast
4:35 PM 46.4 °F 40.1 °F 46.4 °F 100% 29.97 in 5.0 mi SSW 15.0 mph 19.6 mph 0.00 in   Overcast
4:55 PM 46.4 °F 40.4 °F 46.4 °F 100% 29.97 in 3.0 mi SSW 13.8 mph - 0.00 in   Overcast
5:15 PM 46.4 °F 40.1 °F 46.4 °F 100% 29.97 in 2.0 mi SSW 15.0 mph - 0.00 in   Overcast
5:35 PM 46.4 °F 40.7 °F 46.4 °F 100% 29.98 in 1.2 mi SSW 12.7 mph 18.4 mph 0.00 in   Overcast
5:55 PM 46.4 °F 40.4 °F 46.4 °F 100% 29.99 in 1.5 mi SSW 13.8 mph - 0.00 in   Overcast
6:15 PM 46.4 °F 40.7 °F 46.4 °F 100% 29.99 in 1.2 mi SSW 12.7 mph - 0.00 in   Overcast
6:35 PM 46.4 °F 40.7 °F - N/A% 29.99 in 0.8 mi SSW 12.7 mph - 0.00 in   Overcast
6:55 PM 46.4 °F 40.7 °F - N/A% 30.00 in 0.8 mi SSW 12.7 mph - 0.00 in   Overcast
7:15 PM 46.4 °F 40.7 °F - N/A% 30.00 in 0.5 mi SSW 12.7 mph - 0.00 in   Overcast
7:35 PM 46.4 °F 41.1 °F - N/A% 30.00 in 0.5 mi SSW 11.5 mph - 0.00 in   Overcast
7:55 PM 46.4 °F 41.1 °F - N/A% 30.00 in 0.2 mi SSW 11.5 mph - 0.00 in   Overcast
8:15 PM 46.4 °F 40.7 °F - N/A% 30.00 in 0.5 mi SSW 12.7 mph - 0.00 in   Overcast
8:35 PM 46.4 °F 41.9 °F - N/A% 30.00 in 0.2 mi SSW 9.2 mph - 0.00 in   Overcast
8:55 PM 46.4 °F 41.5 °F - N/A% 30.00 in 0.2 mi SSW 10.4 mph - 0.00 in   Overcast
9:15 PM 46.4 °F 41.5 °F - N/A% 30.00 in 0.2 mi SSW 10.4 mph - 0.00 in   Overcast
9:35 PM 46.4 °F 41.9 °F - N/A% 30.00 in 0.2 mi SSW 9.2 mph - 0.00 in   Overcast
9:55 PM 48.2 °F - - N/A% 30.00 in 0.2 mi SSW 11.5 mph - 0.00 in   Overcast
10:15 PM 48.2 °F - - N/A% 30.00 in 0.2 mi SSW 9.2 mph - 0.00 in   Overcast
10:35 PM 48.2 °F - - N/A% 30.01 in 0.2 mi SSW 10.4 mph - 0.00 in   Overcast
10:55 PM 48.2 °F - - N/A% 30.01 in 0.2 mi SSW 10.4 mph - 0.00 in   Overcast
11:15 PM 48.2 °F - - N/A% 30.01 in 0.2 mi SSW 9.2 mph - 0.00 in   Overcast
11:35 PM 48.2 °F - - N/A% 30.01 in 0.2 mi South 9.2 mph - 0.00 in   Overcast
11:55 PM 48.2 °F - - N/A% 30.01 in 0.2 mi South 10.4 mph - 0.00 in   Overcast